GW4074 Weather Reports


Display with metric or nautical units.
time (UTC)temp
F
wind
direction
speed
MPH
gust
MPH
rain 1hr
in
rain 24hr
in
rain mn
in
humidity
%
barometer
mb
20260506062404 48 147 2.0 2.0 0.00 0.00 0.00 99 1016.0
20260506061859 48 104 2.0 2.0 0.00 0.00 0.00 99 1015.9
20260506061356 48 89 0.0 1.0 0.00 0.00 0.00 99 1015.8
20260506060854 48 117 0.0 1.0 0.00 0.00 0.00 99 1015.9
20260506060352 48 118 2.0 2.0 0.00 0.00 0.00 99 1015.8
20260506051324 50 116 1.0 2.0 0.00 0.00 0.00 97 1015.8
20260506050822 50 124 1.0 2.0 0.00 0.00 0.00 96 1015.7
20260506050319 51 84 0.0 2.0 0.00 0.00 0.00 96 1015.7
20260506044809 51 119 0.0 2.0 0.00 0.00 0.00 95 1015.4
20260506044307 52 93 2.0 2.0 0.00 0.00 0.00 96 1015.5
20260506043804 52 79 1.0 2.0 0.00 0.00 0.00 95 1015.4
20260506043301 52 31 2.0 2.0 0.00 0.00 0.00 95 1015.3
20260506042801 52 55 2.0 2.0 0.00 0.00 0.00 94 1015.3
20260506042258 52 48 2.0 2.0 0.00 0.00 0.00 94 1015.2
20260506041757 53 53 2.0 2.0 0.00 0.00 0.00 94 1015.2
20260506041253 53 49 2.0 2.0 0.00 0.00 0.00 94 1015.2
20260506040750 52 58 1.0 2.0 0.00 0.00 0.00 94 1014.9
20260506040247 52 56 2.0 2.0 0.00 0.00 0.00 94 1015.0
20260506035745 52 44 2.0 2.0 0.00 0.00 0.00 94 1015.0
20260506035241 52 53 2.0 2.0 0.00 0.00 0.00 94 1015.0
20260506034738 52 49 2.0 2.0 0.00 0.00 0.00 93 1014.8
20260506034235 52 63 2.0 2.0 0.00 0.00 0.00 94 1014.8
20260506033732 52 44 2.0 2.0 0.00 0.00 0.00 94 1014.8
20260506033230 52 44 1.0 2.0 0.00 0.00 0.00 92 1014.9
20260506032726 52 46 2.0 2.0 0.00 0.00 0.00 91 1014.9
20260506032223 52 101 2.0 2.0 0.00 0.00 0.00 91 1014.8
20260506031720 53 102 2.0 2.0 0.00 0.00 0.00 90 1014.9
20260506031217 53 84 1.0 2.0 0.00 0.00 0.00 90 1014.9
20260506030715 53 87 1.0 2.0 0.00 0.00 0.00 89 1014.9
20260506030212 54 89 0.0 2.0 0.00 0.00 0.00 89 1014.8
20260506025709 54 107 2.0 2.0 0.00 0.00 0.00 88 1014.9
20260506025206 54 114 2.0 2.0 0.00 0.00 0.00 88 1014.7
20260506024703 55 107 1.0 2.0 0.00 0.00 0.00 88 1014.9
20260506024159 55 107 2.0 2.0 0.00 0.00 0.00 88 1014.9
20260506023655 55 110 2.0 2.0 0.00 0.00 0.00 87 1014.8
20260506023153 56 73 1.0 2.0 0.00 0.00 0.00 87 1014.7
20260506022650 56 88 1.0 2.0 0.00 0.00 0.00 85 1014.7
20260506022147 56 100 2.0 2.0 0.00 0.00 0.00 85 1014.8
20260506021645 57 111 2.0 2.0 0.00 0.00 0.00 84 1014.7
20260506021142 56 111 1.0 2.0 0.00 0.00 0.00 85 1014.8
20260506020639 56 138 1.0 2.0 0.00 0.00 0.00 85 1014.9
20260506020137 56 110 3.0 3.0 0.00 0.00 0.00 85 1014.9
20260506015634 57 117 2.0 3.0 0.00 0.00 0.00 84 1014.9
20260506015131 57 111 2.0 3.0 0.00 0.00 0.00 83 1014.9
20260506014629 57 121 2.0 3.0 0.00 0.00 0.00 82 1014.9
20260506014124 58 102 2.0 3.0 0.00 0.00 0.00 82 1014.9
20260506013623 58 92 2.0 2.0 0.00 0.00 0.00 81 1014.9
20260506013119 58 125 2.0 5.0 0.00 0.00 0.00 81 1014.9
20260506012615 59 95 0.0 2.0 0.00 0.00 0.00 80 1015.1
20260506012111 59 110 2.0 4.0 0.00 0.00 0.00 80 1014.8
20260506011609 59 123 2.0 4.0 0.00 0.00 0.00 80 1014.9
20260506011105 60 123 3.0 4.0 0.00 0.00 0.00 79 1014.9
20260506010559 60 50 1.0 4.0 0.00 0.00 0.00 77 1014.9
20260506010055 61 123 2.0 3.0 0.00 0.00 0.00 76 1015.0
20260506005553 62 116 2.0 3.0 0.00 0.00 0.00 75 1015.1
20260506005048 63 114 2.0 3.0 0.00 0.00 0.00 72 1014.9
20260506004546 63 184 0.0 2.0 0.00 0.00 0.00 73 1014.8
20260506004043 63 156 2.0 3.0 0.00 0.00 0.00 74 1014.9
20260506003539 64 247 0.0 3.0 0.00 0.00 0.00 70 1015.0
20260506003035 64 84 2.0 3.0 0.00 0.00 0.00 73 1014.8
20260506002531 63 116 3.0 3.0 0.00 0.00 0.00 73 1015.1
20260506002027 63 120 3.0 3.0 0.00 0.00 0.00 73 1014.9
20260506001524 63 39 2.0 4.0 0.00 0.00 0.00 72 1015.1
20260506001021 64 103 0.0 3.0 0.00 0.00 0.00 71 1015.1
20260506000519 64 129 2.0 3.0 0.00 0.00 0.00 72 1015.0
20260506000016 64 126 1.0 3.0 0.00 0.00 0.00 73 1015.2
20260505235514 65 141 0.0 3.0 0.00 0.00 0.00 71 1015.1
20260505235010 65 124 2.0 3.0 0.00 0.00 0.00 70 1015.1
20260505234507 66 92 1.0 2.0 0.00 0.00 0.00 69 1015.2
20260505234004 66 149 0.0 2.0 0.00 0.00 0.00 69 1015.2
20260505233502 65 234 0.0 3.0 0.00 0.00 0.00 70 1015.1
20260505232959 64 118 2.0 4.0 0.00 0.00 0.00 72 1015.2
20260505232457 64 302 3.0 3.0 0.00 0.00 0.00 71 1015.4
20260505231954 64 107 2.0 4.0 0.00 0.00 0.00 73 1015.2
20260505231451 64 166 3.0 4.0 0.00 0.00 0.00 71 1015.2
20260505230949 64 91 3.0 3.0 0.00 0.00 0.00 72 1015.2
20260505230447 65 38 0.0 3.0 0.00 0.00 0.00 71 1015.4
20260505225943 66 35 3.0 4.0 0.00 0.00 0.00 70 1015.3
20260505225440 66 349 1.0 3.0 0.00 0.00 0.00 69 1015.4
20260505224936 67 147 1.0 5.0 0.00 0.00 0.00 69 1015.4
20260505224433 67 107 2.0 4.0 0.00 0.00 0.00 69 1015.3
20260505223930 66 136 2.0 2.0 0.00 0.00 0.00 69 1015.4
20260505223427 66 157 2.0 2.0 0.00 0.00 0.00 68 1015.3
20260505222923 65 112 2.0 4.0 0.00 0.00 0.00 71 1015.3
20260505222419 67 120 3.0 4.0 0.00 0.00 0.00 69 1015.3
20260505221915 66 317 2.0 4.0 0.00 0.00 0.00 70 1015.5
20260505221413 64 283 1.0 4.0 0.00 0.00 0.00 72 1015.5
20260505220910 64 93 2.0 6.0 0.00 0.00 0.00 72 1015.4
20260505220407 65 113 5.0 5.0 0.00 0.00 0.00 71 1015.6
20260505215905 65 185 2.0 5.0 0.00 0.00 0.00 72 1015.9
20260505215402 64 156 2.0 5.0 0.00 0.00 0.00 72 1015.7
20260505214900 65 168 4.0 8.0 0.00 0.00 0.00 71 1015.6
20260505214357 64 176 3.0 5.0 0.00 0.00 0.00 73 1015.8
20260505213855 64 149 3.0 5.0 0.00 0.00 0.00 72 1015.8
20260505213352 64 38 0.0 5.0 0.00 0.00 0.00 72 1015.9
20260505212848 65 120 3.0 6.0 0.00 0.00 0.00 74 1015.9
20260505212345 63 120 1.0 5.0 0.00 0.00 0.00 76 1016.0
20260505211841 63 123 3.0 3.0 0.00 0.00 0.00 75 1015.8
20260505211339 64 123 3.0 3.0 0.00 0.00 0.00 75 1015.8
20260505210836 62 177 6.0 6.0 0.00 0.00 0.00 76 1015.8
20260505210333 62 162 2.0 6.0 0.00 0.00 0.00 78 1015.9
20260505205829 63 149 3.0 6.0 0.00 0.00 0.00 76 1015.8
20260505205328 62 153 1.0 4.0 0.00 0.00 0.00 78 1015.7
20260505204824 62 120 3.0 3.0 0.00 0.00 0.00 76 1015.8
20260505204322 62 159 2.0 4.0 0.00 0.00 0.00 77 1015.7
20260505203819 61 115 2.0 4.0 0.00 0.00 0.00 80 1015.9
20260505203316 60 123 3.0 4.0 0.00 0.00 0.00 80 1015.9
20260505202812 59 169 2.0 5.0 0.00 0.00 0.00 82 1015.6
20260505202308 59 133 4.0 4.0 0.00 0.00 0.00 85 1015.9
20260505201805 58 174 6.0 6.0 0.00 0.00 0.00 84 1016.0
20260505201302 58 165 4.0 6.0 0.00 0.00 0.00 85 1016.0
20260505200800 57 144 2.0 4.0 0.00 0.00 0.00 87 1015.7
20260505200257 57 122 4.0 6.0 0.00 0.00 0.00 88 1015.8
20260505195752 57 121 2.0 5.0 0.00 0.00 0.00 87 1015.9
20260505195250 57 192 1.0 4.0 0.00 0.00 0.00 86 1015.9
20260505194747 57 153 4.0 4.0 0.00 0.00 0.00 88 1016.0
20260505194244 57 116 3.0 6.0 0.00 0.00 0.00 89 1015.9
20260505193739 56 142 3.0 4.0 0.00 0.00 0.00 88 1015.9
20260505193237 56 155 1.0 5.0 0.00 0.00 0.00 89 1015.8
20260505192736 57 114 3.0 4.0 0.00 0.00 0.00 89 1015.8
20260505192233 56 128 2.0 4.0 0.00 0.00 0.00 90 1015.8
20260505191731 56 124 2.0 4.0 0.00 0.00 0.00 89 1015.7
20260505191229 56 157 3.0 4.0 0.00 0.00 0.00 90 1015.6
20260505190725 55 124 2.0 3.0 0.00 0.00 0.00 90 1015.8
20260505190225 55 122 2.0 3.0 0.00 0.00 0.00 91 1015.6
20260505185722 55 135 3.0 4.0 0.00 0.00 0.00 92 1015.7
20260505185218 54 120 4.0 5.0 0.00 0.00 0.00 92 1015.7
20260505184714 54 178 2.0 5.0 0.00 0.00 0.00 92 1015.7
20260505184212 55 119 2.0 4.0 0.00 0.00 0.00 92 1015.6
20260505183708 54 142 2.0 4.0 0.00 0.00 0.00 93 1015.9
20260505183206 54 124 2.0 4.0 0.00 0.00 0.00 94 1015.8
20260505182702 54 158 3.0 4.0 0.00 0.00 0.00 93 1015.9
20260505182159 54 120 3.0 4.0 0.00 0.00 0.00 94 1015.8
20260505181655 54 112 2.0 3.0 0.00 0.00 0.00 94 1015.7
20260505181153 53 158 4.0 5.0 0.00 0.00 0.00 94 1015.6
20260505180649 54 153 3.0 4.0 0.00 0.00 0.00 94 1015.7
20260505180147 54 117 5.0 5.0 0.00 0.00 0.00 94 1015.5
20260505175642 53 130 4.0 5.0 0.00 0.00 0.00 94 1015.5
20260505175139 53 170 2.0 3.0 0.00 0.00 0.00 94 1015.5
20260505174636 53 112 4.0 4.0 0.00 0.00 0.00 95 1015.5
20260505174132 53 113 3.0 4.0 0.00 0.00 0.00 96 1015.3
20260505173629 53 149 3.0 3.0 0.00 0.00 0.00 95 1015.4
20260505173125 53 146 3.0 4.0 0.00 0.00 0.00 96 1015.4
20260505172623 53 129 0.0 4.0 0.00 0.00 0.00 96 1015.4
20260505172120 53 164 3.0 4.0 0.00 0.00 0.00 96 1015.4
20260505171614 53 119 3.0 4.0 0.00 0.00 0.00 97 1015.2
20260505171112 52 117 3.0 4.0 0.00 0.00 0.00 97 1015.3
20260505170609 52 117 3.0 3.0 0.00 0.00 0.00 97 1015.3
20260505170105 52 153 4.0 4.0 0.00 0.00 0.00 97 1015.4
20260505165554 52 64 2.0 4.0 0.00 0.00 0.00 97 1015.2
20260505165051 52 97 2.0 5.0 0.00 0.00 0.00 98 1015.4
20260505164547 52 107 2.0 4.0 0.00 0.00 0.00 98 1015.4
20260505164044 52 110 3.0 4.0 0.00 0.00 0.00 98 1015.2
20260505163543 51 118 2.0 4.0 0.00 0.00 0.00 98 1015.3
20260505163039 52 147 1.0 3.0 0.00 0.00 0.00 98 1015.2
20260505162532 51 124 2.0 3.0 0.00 0.00 0.00 99 1015.3
20260505162029 51 159 2.0 4.0 0.00 0.00 0.00 99 1015.3
20260505161526 51 123 4.0 4.0 0.00 0.00 0.00 99 1015.3
20260505161023 51 128 3.0 4.0 0.00 0.00 0.00 99 1015.1
20260505160521 51 154 0.0 4.0 0.00 0.00 0.00 99 1015.2
20260505152957 51 132 2.0 4.0 0.00 0.00 0.00 99 1015.0
20260505152454 51 116 2.0 3.0 0.00 0.00 0.00 99 1014.7
20260505151949 51 104 3.0 4.0 0.00 0.00 0.00 99 1014.8
20260505151445 51 163 2.0 3.0 0.00 0.00 0.00 99 1014.8
20260505150943 51 136 2.0 4.0 0.00 0.00 0.00 99 1014.7
20260505150439 51 125 2.0 3.0 0.00 0.00 0.00 99 1014.7
20260505140404 50 132 3.0 3.0 0.00 0.00 0.00 99 1014.4
20260505124817 50 124 2.0 3.0 0.00 0.00 0.00 99 1013.4
20260505124314 50 110 2.0 2.0 0.00 0.00 0.00 99 1013.4
20260505123810 50 111 0.0 1.0 0.00 0.00 0.00 99 1013.4
20260505123306 50 62 1.0 3.0 0.00 0.00 0.00 99 1013.2
20260505122802 50 104 2.0 2.0 0.00 0.00 0.00 99 1013.3
20260505122300 50 101 1.0 2.0 0.00 0.00 0.00 99 1013.4
20260505121756 51 118 1.0 2.0 0.00 0.00 0.00 99 1013.1
20260505121253 51 104 2.0 2.0 0.00 0.00 0.00 99 1013.2
20260505120750 51 106 1.0 2.0 0.00 0.00 0.00 99 1013.1
20260505120246 50 98 2.0 3.0 0.00 0.00 0.00 99 1013.2
20260505115744 51 120 2.0 2.0 0.00 0.00 0.00 99 1013.2
20260505115242 51 112 2.0 2.0 0.00 0.00 0.00 99 1013.0
20260505114739 50 105 1.0 2.0 0.00 0.00 0.00 99 1013.1
20260505114235 50 93 0.0 2.0 0.00 0.00 0.00 99 1012.9
20260505113732 50 120 2.0 2.0 0.00 0.00 0.00 99 1013.0
20260505113229 50 48 0.0 2.0 0.00 0.00 0.00 99 1013.0
20260505112725 50 79 0.0 2.0 0.00 0.00 0.00 99 1012.9
20260505112223 50 101 2.0 2.0 0.00 0.00 0.00 99 1012.9
20260505111723 50 144 1.0 4.0 0.00 0.00 0.00 99 1012.8
20260505111220 51 162 3.0 4.0 0.00 0.00 0.00 99 1013.1
20260505110715 51 125 2.0 2.0 0.00 0.00 0.00 99 1012.9
20260505110213 51 84 1.0 2.0 0.00 0.00 0.00 99 1012.6
20260505102149 51 121 3.0 3.0 0.00 0.00 0.00 99 1012.5
20260505101647 51 113 2.0 2.0 0.00 0.00 0.00 99 1012.7
20260505101143 51 114 2.0 3.0 0.00 0.00 0.00 99 1012.7
20260505100639 51 113 2.0 2.0 0.00 0.00 0.00 99 1012.7
20260505100137 51 111 2.0 2.0 0.00 0.00 0.00 99 1012.5
20260505095632 51 102 0.0 2.0 0.00 0.00 0.00 99 1012.7
20260505095130 51 113 1.0 2.0 0.00 0.00 0.00 99 1012.4
20260505094626 51 124 2.0 2.0 0.00 0.00 0.00 99 1012.6
20260505094122 50 138 2.0 2.0 0.00 0.00 0.00 99 1012.6
20260505093619 50 92 1.0 1.0 0.00 0.00 0.00 99 1012.5
20260505093116 50 89 0.0 1.0 0.00 0.00 0.00 99 1012.4
20260505092613 50 69 0.0 1.0 0.00 0.00 0.00 99 1012.5
20260505092112 50 54 2.0 2.0 0.00 0.00 0.00 99 1012.4
20260505091608 50 71 1.0 2.0 0.00 0.00 0.00 99 1012.4
20260505091106 50 51 1.0 2.0 0.00 0.00 0.00 98 1012.3
20260505090604 50 67 2.0 2.0 0.00 0.00 0.00 98 1012.3
20260505085559 51 68 1.0 2.0 0.00 0.00 0.00 97 1012.1
20260505085057 52 114 1.0 2.0 0.00 0.00 0.00 97 1012.1
20260505084555 52 106 2.0 2.0 0.00 0.00 0.00 97 1012.0
20260505084053 52 46 2.0 2.0 0.00 0.00 0.00 97 1012.1
20260505083550 53 56 2.0 2.0 0.00 0.00 0.00 98 1012.0
20260505083046 53 88 2.0 2.0 0.00 0.00 0.00 98 1011.9
20260505082542 52 51 2.0 2.0 0.00 0.00 0.00 97 1012.0
20260505082039 53 29 2.0 3.0 0.00 0.00 0.00 97 1012.0
20260505081535 53 44 3.0 3.0 0.00 0.00 0.00 97 1012.0
20260505081033 52 85 2.0 2.0 0.00 0.00 0.00 97 1012.2
20260505080529 52 34 2.0 2.0 0.00 0.00 0.00 96 1012.1
20260505080026 53 57 1.0 2.0 0.00 0.00 0.00 96 1012.2
20260505075522 53 41 2.0 3.0 0.00 0.00 0.00 95 1012.2
20260505075019 53 43 3.0 3.0 0.00 0.00 0.00 95 1012.0
20260505074516 53 30 2.0 2.0 0.00 0.00 0.00 94 1012.2
20260505074013 54 29 2.0 2.0 0.00 0.00 0.00 94 1011.9
20260505073510 54 65 1.0 2.0 0.00 0.00 0.00 93 1011.9
20260505073009 55 95 1.0 2.0 0.00 0.00 0.00 92 1011.7
20260505072504 55 103 1.0 2.0 0.00 0.00 0.00 92 1012.0
20260505072000 55 43 2.0 2.0 0.00 0.00 0.00 92 1011.8
20260505071455 55 20 0.0 2.0 0.00 0.00 0.00 92 1011.8
20260505070954 55 22 2.0 2.0 0.00 0.00 0.00 92 1011.9
20260505070451 55 21 2.0 2.0 0.00 0.00 0.00 93 1011.8
20260505065946 54 53 2.0 2.0 0.00 0.00 0.00 93 1011.8